| time (UTC) | temp F | wind direction | speed MPH | gust MPH | rain 1hr in | rain 24hr in | rain mn in | humidity % | barometer mb |
| 20260506211117 | 66 | 0.0 | 0.0 | 0.00 | 0.08 | 0.08 | 69 | 1015.1 | |
| 20260506210118 | 66 | 0.0 | 1.0 | 0.00 | 0.08 | 0.08 | 68 | 1015.1 | |
| 20260506205117 | 66 | 0.0 | 0.0 | 0.00 | 0.08 | 0.08 | 67 | 1014.9 | |
| 20260506204117 | 66 | 0.0 | 0.0 | 0.00 | 0.08 | 0.08 | 67 | 1015.3 | |
| 20260506203117 | 67 | 45 | 1.0 | 3.0 | 0.00 | 0.08 | 0.08 | 65 | 1015.6 |
| 20260506202117 | 67 | 0.0 | 0.0 | 0.00 | 0.08 | 0.08 | 69 | 1015.5 | |
| 20260506201118 | 66 | 0.0 | 1.0 | 0.00 | 0.08 | 0.08 | 68 | 1015.5 | |
| 20260506200137 | 65 | 0.0 | 1.0 | 0.00 | 0.08 | 0.08 | 72 | 1015.9 | |
| 20260506195137 | 63 | 0.0 | 1.0 | 0.00 | 0.08 | 0.08 | 74 | 1016.1 | |
| 20260506194117 | 62 | 0.0 | 1.0 | 0.00 | 0.08 | 0.08 | 75 | 1016.1 | |
| 20260506193117 | 62 | 0.0 | 1.0 | 0.00 | 0.08 | 0.08 | 74 | 1016.4 | |
| 20260506192117 | 61 | 0.0 | 0.0 | 0.00 | 0.08 | 0.08 | 76 | 1016.5 | |
| 20260506191117 | 60 | 0.0 | 0.0 | 0.00 | 0.08 | 0.08 | 77 | 1016.9 | |
| 20260506190117 | 59 | 0.0 | 0.0 | 0.00 | 0.08 | 0.08 | 79 | 1017.0 | |
| 20260506185117 | 59 | 0.0 | 0.0 | 0.00 | 0.08 | 0.08 | 80 | 1017.0 | |
| 20260506184117 | 58 | 0.0 | 0.0 | 0.00 | 0.08 | 0.08 | 80 | 1017.3 | |
| 20260506183117 | 58 | 0.0 | 0.0 | 0.00 | 0.08 | 0.08 | 82 | 1017.3 | |
| 20260506182117 | 57 | 0.0 | 0.0 | 0.00 | 0.08 | 0.08 | 81 | 1017.2 | |
| 20260506181117 | 57 | 0.0 | 0.0 | 0.00 | 0.08 | 0.08 | 82 | 1016.9 | |
| 20260506180137 | 56 | 45 | 2.0 | 5.0 | 0.00 | 0.08 | 0.08 | 83 | 1016.7 |
| 20260506175117 | 56 | 0.0 | 0.0 | 0.00 | 0.08 | 0.08 | 84 | 1016.2 | |
| 20260506174117 | 56 | 0.0 | 0.0 | 0.00 | 0.08 | 0.08 | 85 | 1016.4 | |
| 20260506173117 | 55 | 0.0 | 1.0 | 0.00 | 0.08 | 0.08 | 86 | 1016.4 | |
| 20260506172117 | 55 | 68 | 1.0 | 2.0 | 0.00 | 0.08 | 0.08 | 87 | 1016.6 |
| 20260506171137 | 55 | 0.0 | 1.0 | 0.00 | 0.08 | 0.08 | 89 | 1016.9 | |
| 20260506170117 | 54 | 0.0 | 1.0 | 0.00 | 0.08 | 0.08 | 89 | 1017.0 | |
| 20260506165117 | 54 | 0.0 | 1.0 | 0.00 | 0.08 | 0.08 | 89 | 1016.6 | |
| 20260506164117 | 54 | 0.0 | 1.0 | 0.00 | 0.08 | 0.08 | 89 | 1016.1 | |
| 20260506163117 | 54 | 0.0 | 0.0 | 0.00 | 0.08 | 0.08 | 90 | 1016.8 | |
| 20260506162118 | 53 | 0.0 | 0.0 | 0.00 | 0.08 | 0.08 | 89 | 1016.7 | |
| 20260506161118 | 54 | 0.0 | 1.0 | 0.00 | 0.08 | 0.08 | 90 | 1016.9 | |
| 20260506160117 | 54 | 0.0 | 0.0 | 0.00 | 0.08 | 0.08 | 90 | 1016.9 | |
| 20260506155117 | 54 | 0.0 | 0.0 | 0.01 | 0.08 | 0.08 | 90 | 1016.3 | |
| 20260506154117 | 54 | 0.0 | 1.0 | 0.01 | 0.08 | 0.08 | 90 | 1016.2 | |
| 20260506153137 | 54 | 0.0 | 1.0 | 0.01 | 0.08 | 0.08 | 90 | 1015.9 | |
| 20260506152117 | 54 | 0.0 | 1.0 | 0.05 | 0.08 | 0.08 | 91 | 1015.8 | |
| 20260506151117 | 54 | 0.0 | 1.0 | 0.08 | 0.08 | 0.08 | 91 | 1016.4 | |
| 20260506150117 | 53 | 0.0 | 1.0 | 0.08 | 0.08 | 0.08 | 91 | 1016.8 | |
| 20260506145117 | 52 | 0.0 | 1.0 | 0.07 | 0.07 | 0.07 | 91 | 1017.1 | |
| 20260506144117 | 52 | 0.0 | 0.0 | 0.07 | 0.07 | 0.07 | 90 | 1017.7 | |
| 20260506143117 | 53 | 0.0 | 0.0 | 0.07 | 0.07 | 0.07 | 89 | 1017.8 | |
| 20260506142117 | 53 | 45 | 2.0 | 3.0 | 0.03 | 0.03 | 0.03 | 85 | 1017.9 |
| 20260506141137 | 53 | 0.0 | 0.0 | 0.00 | 0.00 | 0.00 | 83 | 1018.1 | |
| 20260506140117 | 54 | 23 | 1.0 | 3.0 | 0.00 | 0.00 | 0.00 | 82 | 1016.8 |
| 20260506135118 | 54 | 45 | 1.0 | 3.0 | 0.00 | 0.00 | 0.00 | 81 | 1015.7 |
| 20260506134137 | 54 | 0.0 | 1.0 | 0.00 | 0.00 | 0.00 | 81 | 1016.2 | |
| 20260506133117 | 54 | 0.0 | 2.0 | 0.00 | 0.00 | 0.00 | 81 | 1017.4 | |
| 20260506132117 | 54 | 23 | 1.0 | 2.0 | 0.00 | 0.00 | 0.00 | 81 | 1016.3 |
| 20260506131117 | 54 | 0.0 | 2.0 | 0.00 | 0.00 | 0.00 | 81 | 1016.3 | |
| 20260506130117 | 54 | 0.0 | 0.0 | 0.00 | 0.00 | 0.00 | 81 | 1015.6 | |
| 20260506125118 | 54 | 0 | 1.0 | 1.0 | 0.00 | 0.00 | 0.00 | 81 | 1015.3 |
| 20260506124117 | 54 | 23 | 1.0 | 3.0 | 0.00 | 0.00 | 0.00 | 81 | 1015.0 |
| 20260506123117 | 54 | 0.0 | 0.0 | 0.00 | 0.00 | 0.00 | 80 | 1014.9 | |
| 20260506122118 | 54 | 0 | 1.0 | 2.0 | 0.00 | 0.00 | 0.00 | 80 | 1014.8 |
| 20260506121117 | 55 | 23 | 1.0 | 1.0 | 0.00 | 0.00 | 0.00 | 79 | 1014.7 |
| 20260506120118 | 55 | 23 | 1.0 | 5.0 | 0.00 | 0.00 | 0.00 | 79 | 1014.6 |
| 20260506115138 | 56 | 0.0 | 2.0 | 0.00 | 0.00 | 0.00 | 78 | 1014.4 | |
| 20260506114117 | 56 | 45 | 1.0 | 3.0 | 0.00 | 0.00 | 0.00 | 77 | 1014.3 |
| 20260506113138 | 57 | 0.0 | 0.0 | 0.00 | 0.00 | 0.00 | 77 | 1014.2 | |
| 20260506112117 | 57 | 0.0 | 0.0 | 0.00 | 0.00 | 0.00 | 77 | 1014.1 | |
| 20260506111118 | 58 | 0.0 | 1.0 | 0.00 | 0.00 | 0.00 | 77 | 1013.8 | |
| 20260506110138 | 58 | 0.0 | 2.0 | 0.00 | 0.00 | 0.00 | 76 | 1013.6 | |
| 20260506105117 | 59 | 23 | 1.0 | 4.0 | 0.00 | 0.00 | 0.00 | 76 | 1013.3 |
| 20260506104115 | 59 | 0.0 | 1.0 | 0.00 | 0.00 | 0.00 | 76 | 1013.4 | |
| 20260506103137 | 59 | 23 | 2.0 | 3.0 | 0.00 | 0.00 | 0.00 | 77 | 1013.1 |
| 20260506102117 | 59 | 23 | 1.0 | 2.0 | 0.00 | 0.00 | 0.00 | 77 | 1012.8 |
| 20260506101117 | 59 | 0.0 | 2.0 | 0.00 | 0.00 | 0.00 | 77 | 1012.7 | |
| 20260506100115 | 60 | 0.0 | 0.0 | 0.00 | 0.00 | 0.00 | 78 | 1012.6 | |
| 20260506095138 | 60 | 0.0 | 0.0 | 0.00 | 0.00 | 0.00 | 78 | 1012.4 | |
| 20260506094135 | 60 | 0.0 | 0.0 | 0.00 | 0.00 | 0.00 | 77 | 1012.1 | |
| 20260506093118 | 60 | 113 | 1.0 | 5.0 | 0.00 | 0.00 | 0.00 | 77 | 1012.1 |
| 20260506092117 | 60 | 23 | 1.0 | 2.0 | 0.00 | 0.00 | 0.00 | 78 | 1012.1 |
| 20260506091118 | 60 | 0.0 | 0.0 | 0.00 | 0.00 | 0.00 | 79 | 1012.0 | |
| 20260506090115 | 61 | 225 | 1.0 | 3.0 | 0.00 | 0.00 | 0.00 | 78 | 1012.1 |
| 20260506085136 | 61 | 45 | 1.0 | 3.0 | 0.00 | 0.00 | 0.00 | 78 | 1012.1 |
| 20260506084116 | 61 | 0.0 | 0.0 | 0.00 | 0.00 | 0.00 | 78 | 1012.0 | |
| 20260506083115 | 61 | 0.0 | 0.0 | 0.00 | 0.00 | 0.00 | 78 | 1012.0 | |
| 20260506082136 | 61 | 0.0 | 1.0 | 0.00 | 0.00 | 0.00 | 78 | 1011.9 | |
| 20260506081116 | 61 | 0.0 | 0.0 | 0.00 | 0.00 | 0.00 | 78 | 1011.7 | |
| 20260506080116 | 61 | 0.0 | 1.0 | 0.00 | 0.00 | 0.00 | 78 | 1011.8 | |
| 20260506073115 | 61 | 0.0 | 0.0 | 0.00 | 0.00 | 0.00 | 79 | 1011.7 | |
| 20260506072116 | 61 | 0.0 | 0.0 | 0.00 | 0.00 | 0.00 | 80 | 1011.7 | |
| 20260506071115 | 61 | 0.0 | 0.0 | 0.00 | 0.00 | 0.00 | 79 | 1011.6 | |
| 20260506070116 | 61 | 0.0 | 2.0 | 0.00 | 0.00 | 0.00 | 79 | 1011.4 | |
| 20260506062116 | 62 | 0.0 | 0.0 | 0.00 | 0.00 | 0.00 | 77 | 1010.9 | |
| 20260506061116 | 62 | 0.0 | 0.0 | 0.00 | 0.00 | 0.00 | 77 | 1011.1 | |
| 20260506060116 | 62 | 0.0 | 0.0 | 0.00 | 0.00 | 0.00 | 76 | 1011.1 | |
| 20260506051116 | 64 | 0.0 | 0.0 | 0.00 | 0.00 | 0.00 | 74 | 1011.2 | |
| 20260506050116 | 65 | 0.0 | 1.0 | 0.00 | 0.00 | 0.00 | 73 | 1011.0 | |
| 20260506045117 | 65 | 23 | 2.0 | 5.0 | 0.00 | 0.00 | 0.00 | 72 | 1011.1 |
| 20260506044117 | 66 | 0.0 | 1.0 | 0.00 | 0.00 | 0.00 | 73 | 1011.0 | |
| 20260506043231 | 66 | 23 | 2.0 | 2.0 | 0.00 | 0.00 | 0.00 | 72 | 1010.9 |
| 20260506003017 | 78 | 45 | 1.0 | 4.0 | 0.00 | 0.00 | 0.00 | 60 | 1006.4 |
| 20260506002017 | 79 | 0.0 | 1.0 | 0.00 | 0.00 | 0.00 | 59 | 1005.8 | |
| 20260506001017 | 80 | 0.0 | 1.0 | 0.00 | 0.00 | 0.00 | 58 | 1005.9 | |
| 20260506000017 | 82 | 0.0 | 0.0 | 0.00 | 0.00 | 0.00 | 54 | 1005.7 | |
| 20260505235017 | 83 | 45 | 1.0 | 3.0 | 0.00 | 0.00 | 0.00 | 54 | 1005.7 |
| 20260505234057 | 85 | 23 | 2.0 | 5.0 | 0.00 | 0.00 | 0.00 | 53 | 1005.6 |
| 20260505233017 | 89 | 68 | 2.0 | 3.0 | 0.00 | 0.00 | 0.00 | 50 | 1005.2 |
| 20260505232017 | 89 | 0.0 | 1.0 | 0.00 | 0.00 | 0.00 | 47 | 1004.7 | |
| 20260505231017 | 90 | 23 | 1.0 | 2.0 | 0.00 | 0.00 | 0.00 | 45 | 1004.6 |
| 20260505230037 | 93 | 0.0 | 1.0 | 0.00 | 0.00 | 0.00 | 43 | 1004.4 | |
| 20260505225057 | 95 | 0.0 | 0.0 | 0.00 | 0.00 | 0.00 | 43 | 1004.2 | |
| 20260505224017 | 95 | 0.0 | 1.0 | 0.00 | 0.00 | 0.00 | 45 | 1004.2 | |
| 20260505223017 | 94 | 45 | 1.0 | 4.0 | 0.00 | 0.00 | 0.00 | 45 | 1004.0 |
| 20260505222017 | 94 | 0.0 | 1.0 | 0.00 | 0.00 | 0.00 | 39 | 1004.0 | |
| 20260505221017 | 95 | 0.0 | 2.0 | 0.00 | 0.00 | 0.00 | 39 | 1003.9 | |
| 20260505220017 | 95 | 0.0 | 0.0 | 0.00 | 0.00 | 0.00 | 40 | 1003.9 | |
| 20260505215017 | 97 | 0.0 | 0.0 | 0.00 | 0.00 | 0.00 | 42 | 1003.8 | |
| 20260505214017 | 96 | 0.0 | 0.0 | 0.00 | 0.00 | 0.00 | 39 | 1004.0 | |
| 20260505213017 | 95 | 248 | 1.0 | 3.0 | 0.00 | 0.00 | 0.00 | 38 | 1004.1 |
| 20260505212017 | 94 | 225 | 1.0 | 3.0 | 0.00 | 0.00 | 0.00 | 39 | 1004.1 |